Dewpoint
10 10 10 9 7 4 -1 -3 -1 1 -0 -0 -3 -4 -5 -8 -4 -1 8 8 3 8 10 8 4 -1 4 6 9 9 5 -6 -8
12 11 10 10 4 5 0 -2 -2 2 3 2 2 -4 -6 -6 -8 -9 -3 4 7 5 9 1 -0 3 1 -2 -4 7 8 3 -1
11 11 10 10 1 -0 -1 -2 -2 -1 1 1 -0 -3 -4 -4 -7 -8 -6 2 6 4 -4 -8 -8 -4 -4 3 2 -7 -4 -1 1
11 10 8 0 -2 -2 -1 0 1 1 1 1 1 1 1 0 -1 -3 -5 -4 5 4 -6 -10 -9 -8 -4 -4 7 8 -1 -5 -5
2 2 0 -1 -1 -0 1 2 2 2 3 3 4 6 6 5 3 2 2 2 2 3 -3 -12 -15 -13 -9 -6 3 4 10 7 -0
8 7 1 -1 1 2 3 4 5 5 5 7 8 9 8 7 7 7 7 7 6 6 4 3 -0 -9 -13 -9 -6 3 2 8 9
9 3 4 5 6 6 7 7 8 9 8 8 8 9 9 9 9 9 9 9 8 8 7 6 6 5 4 -3 -10 -3 3 3 8
9 9 10 9 8 9 9 10 10 10 10 11 11 11 11 10 10 10 10 10 10 10 10 10 10 9 8 6 5 1 -7 -1 2
11 11 11 11 11 11 11 12 11 12 11 11 11 11 11 11 11 10 10 11 11 11 11 10 10 10 11 11 10 8 7 4 -5
12 11 11 12 12 12 11 11 10 10 10 10 10 10 10 10 10 10 10 10 10 10 10 10 10 10 11 11 11 11 11 10 9
12 12 12 11 11 11 11 10 9 9 9 8 8 9 9 8 8 8 6 6 9 9 9 9 9 10 10 10 10 10 11 11 11
12 11 11 11 10 9 8 7 6 5 4 3 4 5 5 4 4 4 3 6 7 8 9 9 9 8 6 6 7 7 10 10 10
12 11 8 5 3 2 -3 -3 -3 -2 -3 -2 -1 -1 -2 -4 -4 -0 2 4 6 7 8 7 5 6 6 8 9 9 8 9 10
5 -2 -5 -5 -3 -3 -3 -4 -4 -5 -7 -6 -7 -8 -9 -6 -0 0 2 4 3 4 6 4 3 2 5 8 9 9 9 8 8
-5 -4 -3 -3 -4 -4 -6 -8 -9 -11 -10 -14 -12 -15 -8 -3 -5 -3 -1 -2 -5 -5 -3 -3 -1 1 4 5 5 5 7 6 6
-3 -3 -4 -5 -8 -9 -11 -13 -16 -18 -19 -16 -18 -13 -13 -11 -6 -14 -14 -14 -8 -5 -3 -2 -3 -4 -8 -11 -8 -7 -3 -0 3
-3 -4 -5 -6 -8 -10 -16 -19 -23 -21 -21 -13 -17 -10 -12 -11 -17 -7 -13 -4 -3 -10 -14 -12 -14 -11 -11 -12 -14 -11 -8 2 5
-3 -5 -7 -9 -12 -16 -24 -24 -24 -23 -22 -22 -13 -9 -9 -9 -10 -12 -8 -11 -15 -14 -18 -14 -11 -10 -6 -9 -15 -6 -2 1 4
-4 -6 -8 -12 -17 -23 -26 -25 -24 -24 -23 -22 -20 -18 -12 -9 -8 -10 -14 -13 -15 -15 -11 -12 -6 -8 -18 -8 -3 -2 -2 -1 -0
-3 -5 -8 -11 -17 -23 -26 -25 -24 -25 -22 -18 -16 -17 -13 -16 -11 -8 -10 -10 -11 -11 -10 -7 -10 -13 -9 -11 -10 -8 -8 -6 -2
Wind_Speed
1 3 9 11 7 9 10 6 4 4 5 6 8 13 14 17 13 9 8 12 12 13 18 17 15 15 18 18 18 18 17 14 13
5 4 5 13 11 10 12 11 9 9 9 10 11 12 12 13 13 13 11 12 15 14 15 17 17 17 17 19 19 18 17 16 15
3 4 8 11 9 10 10 11 9 8 9 10 11 11 11 13 13 13 10 11 14 18 19 19 20 20 21 19 20 20 20 19 18
6 7 8 6 7 8 8 9 9 9 9 10 11 12 13 14 15 13 12 11 14 18 18 18 20 21 23 24 21 23 23 22 21
4 5 6 6 8 9 9 9 10 11 11 12 12 12 16 17 15 12 12 13 14 17 19 19 21 22 24 25 25 25 25 25 25
6 6 8 8 8 9 10 10 11 13 13 11 11 17 19 17 16 18 18 20 21 21 22 23 22 23 25 26 27 28 28 28 28
8 9 7 7 8 10 11 13 15 16 17 19 19 19 20 19 21 24 24 23 25 27 27 27 28 27 27 28 29 29 31 31 31
5 8 12 13 14 15 17 18 18 19 21 21 21 22 23 23 25 26 26 28 28 30 33 33 32 32 32 31 31 32 32 33 34
6 7 9 11 14 14 15 14 16 18 18 20 21 21 23 23 26 26 27 27 28 31 33 35 36 34 31 33 34 34 35 35 35
6 6 7 9 10 12 14 17 16 18 18 19 20 21 20 22 22 24 25 25 28 30 31 32 32 32 29 31 34 37 37 36 37
6 6 7 9 12 14 14 14 15 14 14 15 16 17 20 22 24 26 26 27 27 28 28 29 30 30 31 30 31 33 37 40 40
2 5 8 10 10 8 9 9 9 11 14 16 17 20 22 24 26 29 28 27 26 26 30 27 27 26 30 31 34 34 33 34 39
3 4 4 3 4 6 10 12 15 18 20 19 20 22 26 26 25 26 24 25 24 21 18 20 25 29 33 35 32 32 33 34 35
2 3 5 6 9 12 15 17 20 23 23 24 25 24 25 20 16 22 20 18 24 27 28 30 30 26 24 26 28 30 33 36 36
6 7 9 11 13 16 19 21 20 20 20 23 23 26 13 14 20 24 24 26 29 31 33 34 30 32 30 31 32 29 27 32 34
9 11 13 15 17 18 18 19 20 19 21 25 31 24 23 17 13 29 27 27 20 18 23 28 33 36 39 42 42 43 43 42 38
12 15 18 19 18 17 17 18 20 20 21 23 24 18 29 14 36 19 27 16 19 31 31 30 36 35 36 39 37 36 35 32 33
16 19 21 19 17 17 16 18 20 23 22 21 16 13 11 40 16 36 11 25 32 36 40 34 32 35 28 37 39 33 35 31 28
21 23 23 20 18 17 17 18 20 21 22 23 21 22 23 28 27 11 43 25 38 38 32 36 27 33 41 36 32 26 33 31 30
22 24 24 22 19 18 18 20 21 22 22 22 26 29 27 32 31 40 31 35 33 33 33 30 39 38 33 38 34 37 42 42 39
Wind_Direction
252 315 333 333 325 349 358 348 344 345 334 318 293 283 287 297 308 289 243 276 262 241 277 273 264 249 238 242 248 262 270 268 265
221 273 321 325 347 356 6 6 344 327 320 318 317 320 317 312 312 307 279 267 275 256 259 272 266 265 257 253 252 257 265 263 264
272 280 298 306 344 359 1 356 353 339 323 322 322 324 318 312 311 306 292 278 276 284 280 276 274 270 266 259 261 262 261 262 261
238 256 275 312 338 344 344 338 337 334 325 317 316 317 318 315 316 310 307 295 280 285 292 285 279 276 273 266 260 269 267 263 262
276 287 299 319 328 332 330 331 330 325 322 317 316 319 320 318 312 310 318 313 298 291 295 294 286 280 274 272 269 259 263 267 262
342 322 329 320 317 317 321 322 321 321 320 323 325 324 322 320 319 320 311 297 288 285 292 295 292 286 279 274 269 267 263 260 262
258 294 300 312 315 324 326 329 332 334 330 328 326 306 312 313 313 303 297 298 294 293 294 294 293 292 289 284 275 268 265 264 260
310 332 334 329 337 338 338 336 336 332 333 328 327 322 318 310 302 305 303 304 301 299 301 301 299 294 288 284 282 280 273 265 263
346 323 312 335 326 322 332 323 321 318 314 317 315 307 302 305 304 303 302 300 296 298 298 299 303 303 291 284 281 279 279 279 272
264 278 316 317 316 315 310 307 310 308 313 308 305 303 307 303 301 299 298 299 296 296 296 296 298 302 292 285 279 278 281 277 273
313 336 316 297 302 301 311 326 326 314 314 306 303 300 291 290 294 294 298 296 291 294 298 296 298 297 297 292 289 282 275 275 278
291 301 296 309 311 317 308 318 321 314 312 317 324 321 316 315 316 315 315 318 314 308 306 309 301 301 309 307 305 297 286 277 273
153 257 310 10 348 321 331 331 326 325 325 320 314 306 308 313 313 307 314 303 300 299 308 311 310 308 306 299 296 293 293 289 283
103 60 31 6 351 339 336 333 330 329 327 320 320 317 323 321 330 319 308 297 298 297 300 304 300 300 302 304 300 300 298 295 292
47 21 7 357 345 335 332 330 332 333 328 327 327 332 339 337 313 309 310 308 306 300 293 297 299 295 295 294 294 299 300 294 295
23 4 350 345 341 339 338 337 341 345 345 341 338 344 327 336 312 313 315 318 305 315 309 300 296 297 296 293 293 294 296 294 295
2 354 348 344 341 341 343 345 347 348 355 347 347 334 329 318 323 331 325 312 305 305 307 307 302 304 304 300 300 299 294 299 301
357 353 349 346 344 346 348 347 349 345 344 344 349 334 310 320 327 322 315 303 315 309 315 319 306 309 303 302 313 303 300 300 304
358 352 349 346 345 344 344 341 340 338 335 332 330 323 315 317 316 317 309 314 314 316 310 313 307 301 307 308 306 304 294 301 308
354 347 342 337 335 334 332 332 333 331 327 327 324 325 319 319 309 310 309 311 311 309 311 301 305 310 307 296 296 297 290 288 302
Height
1506 1507 1506 1505 1504 1503 1503 1502 1502 1502 1502 1502 1502 1502 1501 1500 1499 1499 1499 1500 1501 1501 1499 1500 1500 1500 1500 1500 1500 1501 1501 1501 1501
1504 1506 1506 1504 1504 1503 1502 1502 1501 1501 1501 1500 1500 1500 1499 1499 1498 1497 1497 1497 1497 1498 1497 1496 1497 1497 1497 1497 1497 1497 1498 1498 1498
1504 1504 1505 1505 1504 1503 1502 1502 1501 1500 1500 1499 1498 1498 1497 1496 1495 1494 1494 1495 1495 1495 1494 1494 1494 1494 1493 1493 1493 1494 1494 1494 1495
1504 1504 1504 1504 1503 1502 1501 1501 1500 1500 1499 1498 1497 1497 1496 1495 1493 1493 1492 1491 1492 1492 1492 1491 1490 1490 1490 1490 1490 1490 1490 1490 1491
1504 1503 1503 1503 1503 1502 1501 1501 1499 1499 1498 1497 1496 1495 1494 1493 1492 1491 1490 1490 1490 1489 1489 1488 1487 1486 1486 1486 1486 1486 1486 1486 1486
1503 1503 1503 1503 1502 1501 1501 1500 1499 1498 1497 1496 1495 1493 1492 1491 1490 1489 1488 1489 1488 1487 1486 1485 1484 1483 1481 1481 1481 1481 1481 1481 1481
1504 1504 1503 1502 1501 1501 1500 1499 1498 1496 1495 1494 1492 1491 1490 1489 1487 1488 1488 1487 1486 1484 1483 1481 1480 1478 1477 1476 1475 1475 1475 1476 1476
1503 1503 1502 1501 1500 1499 1498 1497 1497 1495 1494 1493 1491 1490 1488 1487 1487 1486 1484 1483 1482 1480 1479 1477 1476 1474 1471 1470 1469 1469 1469 1469 1469
1503 1503 1502 1501 1500 1499 1499 1497 1496 1495 1494 1491 1490 1489 1487 1485 1484 1482 1481 1479 1478 1477 1475 1473 1470 1468 1466 1465 1464 1463 1462 1462 1462
1502 1502 1501 1501 1499 1498 1497 1496 1494 1492 1491 1489 1488 1486 1485 1484 1482 1480 1478 1476 1474 1472 1470 1468 1466 1464 1462 1460 1458 1457 1455 1455 1454
1500 1500 1499 1498 1497 1496 1495 1493 1492 1491 1489 1487 1484 1483 1481 1479 1477 1475 1472 1470 1468 1467 1465 1463 1460 1458 1456 1454 1451 1449 1448 1447 1446
1498 1497 1497 1496 1495 1494 1492 1490 1489 1487 1485 1483 1481 1480 1477 1474 1471 1469 1467 1465 1463 1462 1460 1457 1455 1452 1450 1448 1445 1442 1440 1439 1438
1494 1494 1494 1493 1492 1491 1490 1487 1486 1483 1481 1478 1476 1473 1472 1469 1467 1465 1463 1459 1458 1456 1454 1452 1449 1447 1445 1442 1439 1436 1433 1431 1429
1493 1493 1492 1491 1489 1488 1487 1485 1482 1479 1476 1473 1471 1469 1467 1464 1462 1459 1456 1455 1453 1450 1447 1445 1443 1440 1438 1434 1432 1429 1426 1423 1421
1492 1492 1491 1490 1488 1485 1483 1481 1479 1476 1473 1470 1466 1463 1462 1461 1457 1455 1452 1450 1447 1444 1442 1439 1436 1434 1432 1429 1426 1423 1419 1416 1413
1491 1491 1490 1488 1485 1482 1480 1478 1475 1473 1470 1465 1460 1458 1458 1456 1454 1452 1448 1445 1441 1440 1438 1434 1432 1428 1425 1421 1418 1415 1411 1407 1405
1491 1489 1487 1485 1482 1480 1478 1475 1472 1471 1468 1464 1459 1454 1451 1451 1448 1445 1442 1439 1437 1435 1431 1428 1425 1420 1416 1413 1410 1407 1402 1398 1395
1489 1487 1485 1483 1480 1478 1475 1473 1471 1467 1467 1465 1464 1457 1451 1443 1439 1438 1435 1434 1430 1427 1423 1419 1417 1413 1409 1405 1402 1400 1396 1391 1386
1487 1484 1482 1480 1478 1476 1474 1472 1470 1467 1464 1462 1462 1460 1455 1448 1431 1431 1429 1427 1423 1419 1416 1413 1409 1407 1402 1398 1394 1390 1385 1381 1378
1484 1482 1480 1478 1476 1474 1472 1470 1467 1465 1463 1460 1456 1453 1449 1446 1440 1419 1419 1418 1416 1413 1409 1407 1403 1399 1395 1390 1386 1381 1376 1372 1369